Location: Zilina
(0.0000°N, 18.7333°E)
Time: 13:01:41
(UTC+01:00)

Ariane H10-3 - Pass Details

Date: 19 February 2019
Orbit: 363 x 34239 km, 4.4° (Epoch: 19 March)

Event Time Altitude Azimuth Distance (km) Brightness Sun altitude
Rises 18:07:37 0° 266° (W) 14,628 12.8 -2.1°
Reaches altitude 10° 18:27:20 10° 266° (W) 8,070 10.4 -7.0°
Maximum altitude 18:44:17 84° 354° (N) 985 4.0 -11.1°
Enters shadow 18:47:09 17° 82° (E) 1,561 4.4 -11.8°
